Marshfield, MA

9:52 AM EDT on April 24, 2018 (GMT -0400)
Marshfield

Weather History for KGHG - April, 2013

Change the Weather History Date:

Monday, April 22, 2013

  Actual Average (KPYM) Record (KPYM)
Temperature  
Mean Temperature 40 °F -  
Max Temperature 48 °F 59 °F 85 °F (1957)
Min Temperature 32 °F 37 °F 24 °F (1975)
Degree Days  
Heating Degree Days 25    
Moisture  
Dew Point 33 °F    
Average Humidity 71    
Maximum Humidity 100    
Minimum Humidity 54    
Precipitation  
Precipitation 0.00 in - - ()
Sea Level Pressure  
Sea Level Pressure 30.70 in    
Wind  
Wind Speed 7 mph (NE)    
Max Wind Speed 17 mph    
Max Gust Speed 23 mph    
Visibility 10 miles    
Events      
Averages and records for this station are not official NWS values.
T = Trace of Precipitation, MM = Missing Value Source: NWS Daily Summary

Daily Weather History Graph

Daily Weather History Graph

Search for Another Location

Airport or City:

Astronomy

Apr. 22, 2013 Rise Set
Actual Time 5:50 AM EDT 7:32 PM EDT
Civil Twilight 5:21 AM EDT 8:01 PM EDT
Nautical Twilight 4:45 AM EDT 8:37 PM EDT
Astronomical Twilight 4:06 AM EDT 9:16 PM EDT
Moon 4:14 PM EDT (4/22) 3:47 AM EDT (4/22)
Length of Visible Light 14h 40m
Length of Day
13h 41m
Waxing Gibbous, 87% of the Moon is Illuminated
Apr 22
Waxing Gibbous
Apr 25
Full
May 2
Last Quarter
May 9
New
May 18
First Quarter

Hourly Weather History & Observations

Time (EDT) Temp. Windchill Dew Point Humidity Pressure Visibility Wind Dir Wind Speed Gust Speed Precip Events Conditions
12:15 AM 33.8 °F 30.8 °F 32.0 °F 93% 30.70 in 10.0 mi West 3.5 mph - N/A   Clear
12:35 AM 32.0 °F - 32.0 °F 100% 30.70 in 10.0 mi Calm Calm - N/A   Clear
12:55 AM 32.0 °F - 32.0 °F 100% 30.69 in 10.0 mi Calm Calm - N/A   Clear
1:15 AM 32.0 °F - 32.0 °F 100% 30.69 in 10.0 mi Calm Calm - N/A   Clear
1:35 AM 32.0 °F - 32.0 °F 100% 30.69 in 10.0 mi Calm Calm - N/A   Clear
1:55 AM 32.0 °F - 32.0 °F 100% 30.69 in 10.0 mi Calm Calm - N/A   Clear
2:15 AM 32.0 °F - 32.0 °F 100% 30.69 in 10.0 mi Calm Calm - N/A   Clear
2:35 AM 32.0 °F - 32.0 °F 100% 30.70 in 10.0 mi Calm Calm - N/A   Clear
2:55 AM 32.0 °F 28.7 °F 32.0 °F 100% 30.69 in 10.0 mi NNW 3.5 mph - N/A   Clear
3:15 AM 32.0 °F - 30.2 °F 93% 30.70 in 10.0 mi Calm Calm - N/A   Clear
3:35 AM 32.0 °F 28.7 °F 30.2 °F 93% 30.70 in 10.0 mi NW 3.5 mph - N/A   Clear
3:55 AM 32.0 °F 28.7 °F 30.2 °F 93% 30.70 in 10.0 mi NW 3.5 mph - N/A   Clear
4:15 AM 32.0 °F - 30.2 °F 93% 30.70 in 10.0 mi Calm Calm - N/A   Clear
4:35 AM 32.0 °F - 30.2 °F 93% 30.70 in 10.0 mi Calm Calm - N/A   Clear
4:55 AM 32.0 °F 27.5 °F 32.0 °F 100% 30.71 in 10.0 mi North 4.6 mph - N/A   Clear
5:15 AM 39.2 °F 35.9 °F 35.6 °F 87% 30.71 in 10.0 mi North 4.6 mph - N/A   Clear
5:35 AM 42.8 °F 38.6 °F 33.8 °F 70% 30.71 in 10.0 mi North 6.9 mph - N/A   Clear
5:55 AM 42.8 °F 39.3 °F 35.6 °F 76% 30.71 in 10.0 mi North 5.8 mph - N/A   Clear
6:15 AM 42.8 °F 38.0 °F 35.6 °F 76% 30.72 in 10.0 mi NNE 8.1 mph - N/A   Clear
6:35 AM 42.8 °F 39.3 °F 35.6 °F 76% 30.72 in 10.0 mi NNE 5.8 mph - N/A   Clear
6:55 AM 44.6 °F 39.7 °F 33.8 °F 66% 30.73 in 10.0 mi NE 9.2 mph - N/A   Clear
7:15 AM 44.6 °F 38.4 °F 33.8 °F 66% 30.73 in 10.0 mi NE 12.7 mph 17.3 mph N/A   Clear
7:35 AM 44.6 °F 38.4 °F 33.8 °F 66% 30.73 in 10.0 mi NE 12.7 mph - N/A   Clear
7:55 AM 46.4 °F 40.1 °F 35.6 °F 66% 30.74 in 10.0 mi NE 15.0 mph - N/A   Clear
8:15 AM 46.4 °F 40.7 °F 33.8 °F 62% 30.74 in 10.0 mi NE 12.7 mph 19.6 mph N/A   Clear
8:35 AM 46.4 °F 41.1 °F 33.8 °F 62% 30.73 in 10.0 mi NE 11.5 mph 19.6 mph N/A   Clear
8:55 AM 46.4 °F 41.1 °F 33.8 °F 62% 30.74 in 10.0 mi NE 11.5 mph - N/A   Clear
9:15 AM 46.4 °F 39.8 °F 33.8 °F 62% 30.74 in 10.0 mi NE 16.1 mph 19.6 mph N/A   Clear
9:35 AM 48.2 °F - 33.8 °F 58% 30.74 in 10.0 mi NE 13.8 mph - N/A   Clear
9:55 AM 48.2 °F - 32.0 °F 54% 30.77 in 10.0 mi ENE 13.8 mph 18.4 mph N/A   Clear
10:15 AM 48.2 °F - 32.0 °F 54% 30.76 in 10.0 mi NE 13.8 mph 18.4 mph N/A   Clear
10:35 AM 48.2 °F - 32.0 °F 54% 30.77 in 10.0 mi ENE 15.0 mph 20.7 mph N/A   Clear
10:55 AM 48.2 °F - 32.0 °F 54% 30.76 in 10.0 mi ENE 13.8 mph 21.9 mph N/A   Clear
11:15 AM 48.2 °F - 32.0 °F 54% 30.76 in 10.0 mi ENE 16.1 mph 23.0 mph N/A   Clear
11:35 AM 48.2 °F - 33.8 °F 58% 30.75 in 10.0 mi ENE 15.0 mph 21.9 mph N/A   Clear
11:55 AM 48.2 °F - 32.0 °F 54% 30.75 in 10.0 mi ENE 11.5 mph 20.7 mph N/A   Clear
12:15 PM 48.2 °F - 32.0 °F 54% 30.74 in 10.0 mi ENE 12.7 mph - N/A   Clear
12:35 PM 48.2 °F - 32.0 °F 54% 30.73 in 10.0 mi ENE 13.8 mph 19.6 mph N/A   Clear
12:55 PM 48.2 °F - 32.0 °F 54% 30.74 in 10.0 mi NE 13.8 mph - N/A   Partly Cloudy
1:15 PM 48.2 °F - 32.0 °F 54% 30.73 in 10.0 mi NE 17.3 mph - N/A   Clear
1:35 PM 48.2 °F - 33.8 °F 58% 30.73 in 10.0 mi NE 16.1 mph 20.7 mph N/A   Clear
1:55 PM 48.2 °F - 33.8 °F 58% 30.74 in 10.0 mi NE 16.1 mph 19.6 mph N/A   Partly Cloudy
2:15 PM 48.2 °F - 35.6 °F 62% 30.72 in 10.0 mi NE 12.7 mph 19.6 mph N/A   Scattered Clouds
2:35 PM 48.2 °F - 37.4 °F 66% 30.70 in 10.0 mi ENE 12.7 mph 19.6 mph N/A   Mostly Cloudy
2:55 PM 46.4 °F 40.1 °F 37.4 °F 71% 30.70 in 10.0 mi NE 15.0 mph 21.9 mph N/A   Mostly Cloudy
3:15 PM 48.2 °F - 37.4 °F 66% 30.68 in 10.0 mi ENE 16.1 mph 23.0 mph N/A   Scattered Clouds
3:35 PM 48.2 °F - 37.4 °F 66% 30.69 in 10.0 mi ENE 13.8 mph 21.9 mph N/A   Scattered Clouds
3:55 PM 46.4 °F 40.4 °F 37.4 °F 71% 30.69 in 10.0 mi ENE 13.8 mph 19.6 mph N/A   Mostly Cloudy
4:15 PM 46.4 °F 40.7 °F 37.4 °F 71% 30.69 in 10.0 mi NE 12.7 mph 20.7 mph N/A   Mostly Cloudy
4:35 PM 46.4 °F 41.1 °F 37.4 °F 71% 30.68 in 10.0 mi ENE 11.5 mph 20.7 mph N/A   Mostly Cloudy
4:55 PM 46.4 °F 39.8 °F 37.4 °F 71% 30.68 in 10.0 mi ENE 16.1 mph 21.9 mph N/A   Mostly Cloudy
5:15 PM 46.4 °F 40.4 °F 37.4 °F 71% 30.68 in 10.0 mi ENE 13.8 mph 18.4 mph N/A   Mostly Cloudy
5:35 PM 46.4 °F 40.4 °F 35.6 °F 66% 30.68 in 10.0 mi ENE 13.8 mph 20.7 mph N/A   Scattered Clouds
5:55 PM 46.4 °F 41.1 °F 35.6 °F 66% 30.67 in 10.0 mi ENE 11.5 mph 20.7 mph N/A   Partly Cloudy
6:15 PM 44.6 °F 37.4 °F 33.8 °F 66% 30.67 in 10.0 mi ENE 16.1 mph 21.9 mph N/A   Partly Cloudy
6:35 PM 44.6 °F 37.8 °F 33.8 °F 66% 30.66 in 10.0 mi ENE 15.0 mph 18.4 mph N/A   Clear
6:55 PM 44.6 °F 38.4 °F 32.0 °F 61% 30.65 in 10.0 mi ENE 12.7 mph 20.7 mph N/A   Clear
7:15 PM 42.8 °F 36.6 °F 32.0 °F 66% 30.66 in 10.0 mi ENE 11.5 mph 16.1 mph N/A   Clear
7:35 PM 42.8 °F 37.5 °F 32.0 °F 66% 30.66 in 10.0 mi ENE 9.2 mph 19.6 mph N/A   Scattered Clouds
7:55 PM 42.8 °F 36.2 °F 32.0 °F 66% 30.66 in 10.0 mi ENE 12.7 mph - N/A   Mostly Cloudy
8:15 PM 42.8 °F 36.6 °F 32.0 °F 66% 30.65 in 10.0 mi ENE 11.5 mph 17.3 mph N/A   Scattered Clouds
8:35 PM 42.8 °F 36.2 °F 32.0 °F 66% 30.65 in 10.0 mi NE 12.7 mph - N/A   Mostly Cloudy
8:55 PM 42.8 °F 35.8 °F 32.0 °F 66% 30.65 in 10.0 mi NE 13.8 mph 18.4 mph N/A   Mostly Cloudy
9:15 PM 42.8 °F 37.5 °F 32.0 °F 66% 30.65 in 10.0 mi ENE 9.2 mph 16.1 mph N/A   Mostly Cloudy
9:35 PM 42.8 °F 36.2 °F 32.0 °F 66% 30.64 in 10.0 mi ENE 12.7 mph 17.3 mph N/A   Scattered Clouds
9:55 PM 42.8 °F 36.6 °F 32.0 °F 66% 30.64 in 10.0 mi ENE 11.5 mph 17.3 mph N/A   Mostly Cloudy
10:15 PM 42.8 °F 38.0 °F 32.0 °F 66% 30.63 in 10.0 mi ENE 8.1 mph - N/A   Scattered Clouds
10:35 PM 42.8 °F 36.2 °F 32.0 °F 66% 30.63 in 10.0 mi ENE 12.7 mph - N/A   Scattered Clouds
10:55 PM 42.8 °F 36.6 °F 32.0 °F 66% 30.62 in 10.0 mi ENE 11.5 mph 18.4 mph N/A   Scattered Clouds
11:15 PM 42.8 °F 36.6 °F 33.8 °F 70% 30.61 in 10.0 mi ENE 11.5 mph 16.1 mph N/A   Mostly Cloudy
11:35 PM 42.8 °F 37.0 °F 32.0 °F 66% 30.61 in 10.0 mi ENE 10.4 mph 20.7 mph N/A   Mostly Cloudy
11:55 PM 42.8 °F 36.2 °F 32.0 °F 66% 30.60 in 10.0 mi ENE 12.7 mph 18.4 mph N/A   Mostly Cloudy